Hourly Data Report for April 27, 2004

SHERBROOKE A
QUEBEC

45°26'00.000" N
71°41'00.000" W
241.40 m
7028124
71610
YSC

Download Data

Hourly Data (April 2004)
Hourly Data Report for April 27, 2004
TIME
LST
Temp Definition
°C
Dew Point Definition
°C
Rel Hum Definition
%
Precip. Amount Definition
mm

Wind Dir Definition
10's deg

Wind Spd Definition
km/h
Visibility Definition
km
Stn Press Definition
kPa
Hmdx Definition


Wind Chill Definition


Weather Definition


00:00 6.8 5.6 92     0 11.3 97.85      
01:00 5.2 4.3 94   22 7 5.6 97.75      
02:00 6.8 5.9 94   21 7 9.7 97.69      
03:00 6.1 4.9 92   22 6 11.3 97.66      
04:00 5.8 4.6 92   22 6 11.3 97.63      
05:00 5.9 4.5 91   15 4 12.9 97.62      
06:00 6.2 4.8 91     0 15.0 97.59      
07:00 7.5 5.4 87   19 4 19.3 97.54     Mostly Cloudy
08:00 8.2 4.5 77   22 6 24.1 97.49     Mainly Clear
09:00 10.5 5.0 69   26 6 24.1 97.43     Mainly Clear
10:00 11.9 4.8 62   28 11 24.1 97.37     Mainly Clear
11:00 13.1 3.7 53   23 11 24.1 97.29     Mostly Cloudy
12:00 11.4 4.3 62   29 13 24.1 97.24     Rain Showers
13:00 10.5 5.1 69   29 28 24.1 97.23     Rain Showers
14:00 12.3 2.5 51   23 20 24.1 97.25     Mostly Cloudy
15:00 10.6 2.1 56   23 15 24.1 97.29     Mostly Cloudy
16:00 11.5 2.4 54   28 19 24.1 97.30     Rain Showers
17:00 11.4 2.2 53   28 22 15.0 97.37      
18:00 9.7 0.3 52   28 28 15.0 97.45      
19:00 7.4 -0.7 56   28 15 15.0 97.57      
20:00 6.3 0.4 66   27 11 15.0 97.68      
21:00 4.2 -0.1 74   28 15 15.0 97.73      
22:00 2.7 -0.4 80   28 9 15.0 97.76      
23:00 3.4 0.3 80   27 9 15.0 97.77      

Notes on Data Quality.

Legend

  • E = Estimated
  • M = Missing
  • NA = Not Available*
  • [empty] = Indicates an unobserved value
Date modified: